AFR27EM LFMN-LFRS

Flight info

Callsign AFR27EM
Flight time 1h 19m
Altitude 36000
Route BODRU DCT KOTIT DCT ETREK DCT NOQAS DCT LERGA DCT FOUCO DCT MANAK
Aircraft A320/M-SDE3FGHIRWY/LB1

Departure

Time 2026-05-06 13:41
Airport Nice-Côte d'Azur Airport (LFMN)

Arrival

Time 2026-05-06 15:01
Airport Nantes Atlantique Airport (LFRS)
Time Latitude Longitude Altitude Speed Heading
2026-05-06 12:44 43.66170 7.20675 22 ft 0 kts 261°
2026-05-06 13:22 43.66171 7.20689 22 ft 2 kts 261°
2026-05-06 13:23 43.66174 7.20713 22 ft 2 kts 261°
2026-05-06 13:23 43.66177 7.20736 23 ft 2 kts 250°
2026-05-06 13:23 43.66185 7.20758 22 ft 3 kts 220°
2026-05-06 13:23 43.66200 7.20772 25 ft 3 kts 195°
2026-05-06 13:24 43.66215 7.20774 24 ft 0 kts 168°
2026-05-06 13:26 43.66173 7.20783 22 ft 9 kts 171°
2026-05-06 13:27 43.66106 7.20797 22 ft 11 kts 171°
2026-05-06 13:27 43.66029 7.20814 22 ft 12 kts 171°
2026-05-06 13:27 43.65942 7.20834 22 ft 13 kts 171°
2026-05-06 13:27 43.65849 7.20854 22 ft 14 kts 171°
2026-05-06 13:28 43.65802 7.20936 24 ft 13 kts 62°
2026-05-06 13:28 43.65864 7.21025 22 ft 16 kts 45°
2026-05-06 13:28 43.65945 7.21138 22 ft 16 kts 45°
2026-05-06 13:28 43.66020 7.21240 22 ft 14 kts 45°
2026-05-06 13:29 43.66088 7.21334 22 ft 15 kts 45°
2026-05-06 13:29 43.66184 7.21465 22 ft 20 kts 44°
2026-05-06 13:29 43.66278 7.21595 22 ft 18 kts 45°
2026-05-06 13:29 43.66364 7.21713 22 ft 17 kts 45°
2026-05-06 13:30 43.66442 7.21821 22 ft 15 kts 45°
2026-05-06 13:30 43.66513 7.21919 22 ft 14 kts 45°
2026-05-06 13:30 43.66591 7.22027 22 ft 15 kts 45°
2026-05-06 13:30 43.66664 7.22126 22 ft 14 kts 44°
2026-05-06 13:31 43.66730 7.22216 22 ft 13 kts 44°
2026-05-06 13:31 43.66788 7.22295 22 ft 11 kts 45°
2026-05-06 13:31 43.66818 7.22383 21 ft 10 kts 104°
2026-05-06 13:31 43.66763 7.22465 21 ft 18 kts 135°
2026-05-06 13:32 43.66671 7.22590 22 ft 15 kts 134°
2026-05-06 13:32 43.66593 7.22699 22 ft 16 kts 135°
2026-05-06 13:32 43.66513 7.22764 23 ft 13 kts 188°
2026-05-06 13:32 43.66441 7.22680 22 ft 17 kts 225°
2026-05-06 13:33 43.66203 7.22354 24 ft 75 kts 224°
2026-05-06 13:33 43.65966 7.22028 24 ft 39 kts 224°
2026-05-06 13:33 43.65791 7.21787 23 ft 33 kts 225°
2026-05-06 13:33 43.65638 7.21576 24 ft 29 kts 225°
2026-05-06 13:34 43.65508 7.21384 25 ft 26 kts 235°
2026-05-06 13:34 43.65436 7.21174 25 ft 23 kts 252°
2026-05-06 13:34 43.65391 7.20956 22 ft 24 kts 256°
2026-05-06 13:34 43.65370 7.20787 22 ft 16 kts 279°
2026-05-06 13:35 43.65454 7.20710 22 ft 15 kts 351°
2026-05-06 13:35 43.65551 7.20688 22 ft 13 kts 351°
2026-05-06 13:35 43.65633 7.20707 22 ft 11 kts 43°
2026-05-06 13:35 43.65685 7.20779 22 ft 10 kts 45°
2026-05-06 13:36 43.65716 7.20822 22 ft 9 kts 45°
2026-05-06 13:36 43.65757 7.20879 22 ft 8 kts 45°
2026-05-06 13:36 43.65796 7.20933 22 ft 8 kts 45°
2026-05-06 13:36 43.65833 7.20983 22 ft 7 kts 45°
2026-05-06 13:37 43.65900 7.21075 22 ft 26 kts 45°
2026-05-06 13:37 43.66030 7.21256 22 ft 26 kts 44°
2026-05-06 13:37 43.66152 7.21423 22 ft 24 kts 47°
2026-05-06 13:37 43.66266 7.21578 22 ft 22 kts 45°
2026-05-06 13:38 43.66371 7.21724 22 ft 21 kts 44°
2026-05-06 13:38 43.66468 7.21858 22 ft 19 kts 45°
2026-05-06 13:38 43.66559 7.21983 22 ft 20 kts 45°
2026-05-06 13:38 43.66656 7.22115 22 ft 19 kts 44°
2026-05-06 13:39 43.66745 7.22237 22 ft 17 kts 44°
2026-05-06 13:39 43.66817 7.22355 22 ft 15 kts 79°
2026-05-06 13:39 43.66765 7.22463 21 ft 14 kts 137°
2026-05-06 13:39 43.66690 7.22564 21 ft 15 kts 134°
2026-05-06 13:40 43.66616 7.22667 22 ft 11 kts 135°
2026-05-06 13:40 43.66590 7.22703 22 ft 0 kts 135°
2026-05-06 13:40 43.66586 7.22709 22 ft 6 kts 135°
2026-05-06 13:40 43.66503 7.22756 23 ft 15 kts 202°
2026-05-06 13:41 43.66353 7.22561 23 ft 59 kts 224°
2026-05-06 13:41 43.65911 7.21951 23 ft 118 kts 225°
2026-05-06 13:41 43.65249 7.21043 328 ft 137 kts 224°
2026-05-06 13:41 43.64562 7.20091 969 ft 141 kts 224°
2026-05-06 13:42 43.63868 7.19142 1669 ft 141 kts 225°
2026-05-06 13:42 43.63139 7.18140 2085 ft 158 kts 226°
2026-05-06 13:42 43.62305 7.16992 2392 ft 180 kts 227°
2026-05-06 13:42 43.61324 7.15742 2742 ft 202 kts 214°
2026-05-06 13:43 43.59933 7.15316 3407 ft 218 kts 174°
2026-05-06 13:43 43.58489 7.16129 4133 ft 229 kts 156°
2026-05-06 13:43 43.57090 7.17218 4888 ft 233 kts 155°
2026-05-06 13:43 43.55592 7.18019 5612 ft 230 kts 175°
2026-05-06 13:44 43.54014 7.18024 6345 ft 226 kts 197°
2026-05-06 13:44 43.52504 7.17448 7085 ft 224 kts 208°
2026-05-06 13:44 43.51313 7.16162 7819 ft 218 kts 239°
2026-05-06 13:44 43.50831 7.14209 8560 ft 219 kts 268°
2026-05-06 13:45 43.51097 7.12125 9312 ft 224 kts 282°
2026-05-06 13:45 43.51942 7.07933 10732 ft 229 kts 282°
2026-05-06 13:45 43.52496 7.05856 11425 ft 236 kts 296°
2026-05-06 13:46 43.53558 7.04074 11993 ft 253 kts 316°
2026-05-06 13:46 43.55144 7.02749 12259 ft 281 kts 328°
2026-05-06 13:46 43.56953 7.01470 12503 ft 304 kts 328°
2026-05-06 13:46 43.58909 7.00092 12707 ft 327 kts 329°
2026-05-06 13:47 43.60985 6.98625 13157 ft 340 kts 329°
2026-05-06 13:47 43.63108 6.97120 13830 ft 346 kts 328°
2026-05-06 13:47 43.65257 6.95590 14483 ft 350 kts 328°
2026-05-06 13:47 43.67426 6.94040 15123 ft 353 kts 327°
2026-05-06 13:48 43.69619 6.92470 15700 ft 357 kts 327°
2026-05-06 13:48 43.71829 6.90884 16361 ft 359 kts 327°
2026-05-06 13:48 43.74059 6.89278 17003 ft 363 kts 326°
2026-05-06 13:48 43.76304 6.87658 17652 ft 366 kts 326°
2026-05-06 13:49 43.78571 6.86023 18251 ft 369 kts 326°
2026-05-06 13:49 43.80857 6.84374 18779 ft 372 kts 326°
2026-05-06 13:49 43.83165 6.82711 19309 ft 376 kts 326°
2026-05-06 13:49 43.85494 6.81030 19811 ft 380 kts 325°
2026-05-06 13:50 43.87851 6.79327 20313 ft 384 kts 325°
2026-05-06 13:50 43.90232 6.77606 20779 ft 389 kts 324°
2026-05-06 13:50 43.92629 6.75847 21313 ft 389 kts 322°
2026-05-06 13:50 43.94827 6.73719 21810 ft 383 kts 313°
2026-05-06 13:51 43.96748 6.71172 22266 ft 382 kts 306°
2026-05-06 13:51 43.98634 6.68548 22835 ft 387 kts 306°
2026-05-06 13:51 44.00552 6.65894 23440 ft 390 kts 306°
2026-05-06 13:51 44.02485 6.63237 23919 ft 392 kts 306°
2026-05-06 13:52 44.04433 6.60558 24375 ft 395 kts 306°
2026-05-06 13:52 44.06394 6.57861 24813 ft 398 kts 306°
2026-05-06 13:52 44.08371 6.55130 25303 ft 402 kts 306°
2026-05-06 13:52 44.10356 6.52381 25744 ft 404 kts 306°
2026-05-06 13:53 44.12378 6.49574 26164 ft 407 kts 306°
2026-05-06 13:53 44.14387 6.46783 26569 ft 410 kts 306°
2026-05-06 13:53 44.16405 6.43972 26969 ft 412 kts 305°
2026-05-06 13:53 44.18436 6.41140 27365 ft 414 kts 306°
2026-05-06 13:54 44.20479 6.38285 27752 ft 416 kts 304°
2026-05-06 13:54 44.22337 6.35231 28121 ft 413 kts 299°
2026-05-06 13:54 44.24143 6.32107 28451 ft 416 kts 299°
2026-05-06 13:54 44.25967 6.28960 28787 ft 418 kts 300°
2026-05-06 13:55 44.27802 6.25794 29132 ft 420 kts 300°
2026-05-06 13:55 44.29640 6.22619 29388 ft 422 kts 300°
2026-05-06 13:55 44.31485 6.19422 29685 ft 424 kts 300°
2026-05-06 13:55 44.33338 6.16208 29969 ft 426 kts 300°
2026-05-06 13:56 44.35199 6.12975 30221 ft 429 kts 300°
2026-05-06 13:56 44.37073 6.09719 30482 ft 431 kts 300°
2026-05-06 13:56 44.38957 6.06446 30739 ft 433 kts 300°
2026-05-06 13:56 44.40845 6.03158 30987 ft 435 kts 301°
2026-05-06 13:57 44.42743 5.99845 31221 ft 437 kts 301°
2026-05-06 13:57 44.44644 5.96521 31537 ft 437 kts 301°
2026-05-06 13:57 44.46537 5.93206 31889 ft 436 kts 301°
2026-05-06 13:57 44.48430 5.89892 32236 ft 435 kts 301°
2026-05-06 13:58 44.50321 5.86578 32553 ft 435 kts 301°
2026-05-06 13:58 44.52205 5.83270 32854 ft 435 kts 301°
2026-05-06 13:58 44.54090 5.79958 33181 ft 434 kts 301°
2026-05-06 13:58 44.55971 5.76650 33514 ft 434 kts 301°
2026-05-06 13:59 44.57851 5.73336 33839 ft 434 kts 302°
2026-05-06 13:59 44.59730 5.70025 34094 ft 434 kts 302°
2026-05-06 13:59 44.61610 5.66710 34343 ft 434 kts 302°
2026-05-06 13:59 44.63490 5.63392 34557 ft 434 kts 302°
2026-05-06 14:00 44.65365 5.60069 34800 ft 435 kts 302°
2026-05-06 14:00 44.67242 5.56736 35026 ft 435 kts 302°
2026-05-06 14:00 44.69120 5.53405 35240 ft 435 kts 302°
2026-05-06 14:00 44.71001 5.50067 35447 ft 436 kts 302°
2026-05-06 14:01 44.72883 5.46727 35695 ft 436 kts 302°
2026-05-06 14:01 44.74767 5.43372 35883 ft 437 kts 302°
2026-05-06 14:01 44.78508 5.36702 35929 ft 432 kts 302°
2026-05-06 14:02 44.82224 5.30059 35927 ft 431 kts 302°
2026-05-06 14:02 44.85930 5.23408 35926 ft 432 kts 302°
2026-05-06 14:03 44.89635 5.16743 35925 ft 432 kts 302°
2026-05-06 14:03 44.93340 5.10084 35929 ft 432 kts 303°
2026-05-06 14:04 44.97046 5.03406 35930 ft 432 kts 303°
2026-05-06 14:04 45.00745 4.96715 35936 ft 432 kts 303°
2026-05-06 14:05 45.04441 4.90014 35936 ft 432 kts 303°
2026-05-06 14:05 45.08127 4.83305 35942 ft 432 kts 303°
2026-05-06 14:06 45.11817 4.76585 35945 ft 432 kts 303°
2026-05-06 14:06 45.15501 4.69873 35947 ft 432 kts 303°
2026-05-06 14:07 45.18407 4.62584 35948 ft 421 kts 285°
2026-05-06 14:07 45.19529 4.54555 35940 ft 414 kts 273°
2026-05-06 14:08 45.20189 4.46433 35927 ft 415 kts 273°
2026-05-06 14:08 45.20847 4.38296 35917 ft 415 kts 273°
2026-05-06 14:09 45.21494 4.30155 35920 ft 416 kts 273°
2026-05-06 14:09 45.22140 4.22003 35915 ft 416 kts 273°
2026-05-06 14:10 45.22780 4.13849 35915 ft 416 kts 273°
2026-05-06 14:10 45.23413 4.05683 35914 ft 416 kts 273°
2026-05-06 14:11 45.24041 3.97512 35911 ft 417 kts 273°
2026-05-06 14:11 45.24664 3.89332 35910 ft 417 kts 273°
2026-05-06 14:12 45.25279 3.81141 35905 ft 417 kts 273°
2026-05-06 14:12 45.26057 3.73064 35903 ft 420 kts 281°
2026-05-06 14:13 45.27116 3.67045 35905 ft 420 kts 280°
2026-05-06 14:13 45.28354 3.59495 35903 ft 420 kts 280°
2026-05-06 14:14 45.29401 3.52759 35899 ft 421 kts 280°
2026-05-06 14:14 45.30643 3.45302 35893 ft 422 kts 281°
2026-05-06 14:15 45.31789 3.38456 35890 ft 422 kts 280°
2026-05-06 14:15 45.33076 3.30514 35886 ft 422 kts 280°
2026-05-06 14:16 45.34421 3.22382 35887 ft 423 kts 281°
2026-05-06 14:16 45.35764 3.14235 35889 ft 423 kts 281°
2026-05-06 14:17 45.37084 3.06077 35889 ft 424 kts 280°
2026-05-06 14:17 45.38393 2.97897 35896 ft 424 kts 280°
2026-05-06 14:18 45.39702 2.89709 35901 ft 424 kts 281°
2026-05-06 14:18 45.41004 2.81515 35906 ft 425 kts 281°
2026-05-06 14:19 45.42302 2.73315 35912 ft 425 kts 281°
2026-05-06 14:19 45.43593 2.65103 35917 ft 425 kts 281°
2026-05-06 14:20 45.44890 2.56881 35921 ft 426 kts 281°
2026-05-06 14:20 45.46180 2.48638 35927 ft 426 kts 281°
2026-05-06 14:21 45.47459 2.40393 35932 ft 426 kts 281°
2026-05-06 14:21 45.48729 2.32146 35932 ft 426 kts 281°
2026-05-06 14:22 45.49996 2.23899 35932 ft 426 kts 281°
2026-05-06 14:22 45.51258 2.15663 35931 ft 425 kts 281°
2026-05-06 14:23 45.52513 2.07419 35928 ft 425 kts 281°
2026-05-06 14:23 45.53756 1.99177 35928 ft 425 kts 281°
2026-05-06 14:24 45.54995 1.90926 35928 ft 425 kts 281°
2026-05-06 14:24 45.56231 1.82674 35925 ft 425 kts 281°
2026-05-06 14:25 45.57467 1.74412 35926 ft 426 kts 281°
2026-05-06 14:25 45.58692 1.66141 35920 ft 426 kts 281°
2026-05-06 14:26 45.59912 1.57876 35913 ft 426 kts 281°
2026-05-06 14:26 45.61118 1.49594 35913 ft 426 kts 281°
2026-05-06 14:27 45.62327 1.41306 35908 ft 426 kts 281°
2026-05-06 14:27 45.63531 1.33014 35901 ft 426 kts 281°
2026-05-06 14:28 45.64726 1.24709 35896 ft 426 kts 281°
2026-05-06 14:28 45.65917 1.16408 35894 ft 427 kts 281°
2026-05-06 14:29 45.67106 1.08094 35904 ft 427 kts 281°
2026-05-06 14:29 45.68288 0.99770 35910 ft 427 kts 281°
2026-05-06 14:30 45.69462 0.91440 35911 ft 428 kts 281°
2026-05-06 14:30 45.70633 0.83100 35924 ft 427 kts 281°
2026-05-06 14:31 45.71794 0.74758 35920 ft 427 kts 281°
2026-05-06 14:31 45.72961 0.66361 35922 ft 427 kts 281°
2026-05-06 14:32 45.74113 0.58079 35923 ft 427 kts 281°
2026-05-06 14:32 45.75301 0.49691 35919 ft 427 kts 285°
2026-05-06 14:33 45.77540 0.41834 35923 ft 427 kts 295°
2026-05-06 14:33 45.80087 0.34138 35920 ft 427 kts 295°
2026-05-06 14:34 45.81355 0.30281 35776 ft 428 kts 295°
2026-05-06 14:34 45.82619 0.26429 35458 ft 425 kts 295°
2026-05-06 14:34 45.83872 0.22606 34948 ft 422 kts 295°
2026-05-06 14:34 45.85115 0.18808 34442 ft 419 kts 295°
2026-05-06 14:35 45.86347 0.15036 33937 ft 416 kts 295°
2026-05-06 14:35 45.87572 0.11284 33379 ft 413 kts 296°
2026-05-06 14:35 45.88786 0.07569 32887 ft 409 kts 296°
2026-05-06 14:35 45.89985 0.03893 32403 ft 405 kts 296°
2026-05-06 14:36 45.91173 0.00253 31928 ft 401 kts 297°
2026-05-06 14:36 45.92348 -0.03355 31442 ft 397 kts 297°
2026-05-06 14:36 45.93511 -0.06934 30977 ft 394 kts 297°
2026-05-06 14:36 45.94663 -0.10489 30518 ft 391 kts 298°
2026-05-06 14:37 45.95803 -0.14012 30068 ft 387 kts 298°
2026-05-06 14:37 45.96934 -0.17512 29587 ft 384 kts 298°
2026-05-06 14:37 45.98049 -0.20966 29158 ft 378 kts 298°
2026-05-06 14:37 45.99147 -0.24374 28743 ft 373 kts 298°
2026-05-06 14:38 46.00230 -0.27743 28335 ft 369 kts 298°
2026-05-06 14:38 46.01303 -0.31078 27927 ft 365 kts 298°
2026-05-06 14:38 46.02361 -0.34374 27529 ft 361 kts 298°
2026-05-06 14:38 46.03407 -0.37640 27130 ft 357 kts 298°
2026-05-06 14:39 46.04442 -0.40871 26717 ft 353 kts 298°
2026-05-06 14:39 46.05464 -0.44066 26322 ft 350 kts 298°
2026-05-06 14:39 46.06477 -0.47235 25901 ft 347 kts 297°
2026-05-06 14:39 46.07480 -0.50377 25487 ft 344 kts 297°
2026-05-06 14:40 46.08475 -0.53496 25064 ft 342 kts 297°
2026-05-06 14:40 46.09462 -0.56597 24649 ft 340 kts 297°
2026-05-06 14:40 46.10444 -0.59687 24231 ft 338 kts 297°
2026-05-06 14:40 46.11421 -0.62763 23790 ft 337 kts 297°
2026-05-06 14:41 46.12395 -0.65833 23341 ft 336 kts 297°
2026-05-06 14:41 46.13365 -0.68889 22900 ft 334 kts 297°
2026-05-06 14:41 46.14326 -0.71918 22474 ft 331 kts 297°
2026-05-06 14:41 46.15278 -0.74931 22069 ft 329 kts 296°
2026-05-06 14:42 46.16221 -0.77923 21656 ft 327 kts 296°
2026-05-06 14:42 46.17161 -0.80908 21250 ft 326 kts 296°
2026-05-06 14:42 46.18095 -0.83874 20852 ft 324 kts 296°
2026-05-06 14:42 46.19044 -0.86886 20451 ft 345 kts 296°
2026-05-06 14:43 46.20069 -0.90126 20002 ft 361 kts 296°
2026-05-06 14:43 46.21263 -0.93311 19541 ft 361 kts 306°
2026-05-06 14:43 46.22923 -0.95998 19081 ft 358 kts 320°
2026-05-06 14:43 46.24855 -0.98249 18645 ft 356 kts 322°
2026-05-06 14:44 46.26788 -1.00473 18184 ft 355 kts 322°
2026-05-06 14:44 46.28712 -1.02691 17704 ft 352 kts 321°
2026-05-06 14:44 46.30618 -1.04895 17270 ft 350 kts 321°
2026-05-06 14:45 46.34388 -1.09273 16413 ft 345 kts 321°
2026-05-06 14:45 46.36253 -1.11447 15991 ft 343 kts 321°
2026-05-06 14:45 46.38102 -1.13605 15578 ft 341 kts 321°
2026-05-06 14:45 46.39943 -1.15751 15158 ft 338 kts 321°
2026-05-06 14:46 46.41774 -1.17879 14752 ft 336 kts 321°
2026-05-06 14:46 46.43591 -1.19991 14350 ft 334 kts 321°
2026-05-06 14:46 46.45399 -1.22098 13946 ft 332 kts 321°
2026-05-06 14:46 46.47192 -1.24191 13513 ft 330 kts 321°
2026-05-06 14:47 46.48972 -1.26273 13097 ft 327 kts 321°
2026-05-06 14:47 46.50740 -1.28341 12693 ft 325 kts 322°
2026-05-06 14:47 46.52494 -1.30388 12290 ft 323 kts 322°
2026-05-06 14:47 46.54236 -1.32429 11884 ft 321 kts 322°
2026-05-06 14:48 46.55964 -1.34460 11474 ft 319 kts 322°
2026-05-06 14:48 46.57685 -1.36483 11067 ft 317 kts 322°
2026-05-06 14:48 46.59441 -1.38412 10637 ft 316 kts 329°
2026-05-06 14:48 46.61442 -1.39681 10224 ft 313 kts 344°
2026-05-06 14:49 46.63541 -1.40490 9860 ft 309 kts 345°
2026-05-06 14:49 46.65583 -1.41266 9731 ft 298 kts 345°
2026-05-06 14:49 46.67548 -1.42008 9511 ft 284 kts 345°
2026-05-06 14:49 46.69431 -1.42721 8968 ft 277 kts 346°
2026-05-06 14:50 46.70684 -1.43199 8521 ft 275 kts 346°
2026-05-06 14:50 46.72536 -1.43915 8108 ft 274 kts 346°
2026-05-06 14:50 46.74369 -1.44639 7724 ft 272 kts 346°
2026-05-06 14:50 46.76188 -1.45363 7330 ft 270 kts 346°
2026-05-06 14:51 46.77995 -1.46081 6940 ft 269 kts 346°
2026-05-06 14:51 46.79791 -1.46795 6554 ft 267 kts 346°
2026-05-06 14:51 46.81578 -1.47507 6152 ft 265 kts 346°
2026-05-06 14:51 46.83349 -1.48212 5707 ft 262 kts 346°
2026-05-06 14:52 46.85076 -1.48900 5357 ft 248 kts 346°
2026-05-06 14:52 46.86675 -1.49542 5129 ft 233 kts 347°
2026-05-06 14:52 46.88223 -1.50161 4925 ft 226 kts 346°
2026-05-06 14:52 46.89739 -1.50782 4849 ft 228 kts 342°
2026-05-06 14:53 46.91004 -1.52135 4635 ft 232 kts 306°
2026-05-06 14:53 46.91515 -1.54366 4432 ft 237 kts 273°
2026-05-06 14:53 46.91346 -1.56776 4238 ft 239 kts 264°
2026-05-06 14:53 46.91181 -1.59195 4029 ft 239 kts 268°
2026-05-06 14:54 46.91126 -1.61612 3822 ft 237 kts 272°
2026-05-06 14:54 46.91183 -1.64015 3619 ft 236 kts 276°
2026-05-06 14:54 46.91349 -1.66392 3418 ft 234 kts 280°
2026-05-06 14:54 46.91622 -1.68715 3280 ft 227 kts 284°
2026-05-06 14:55 46.91987 -1.70942 3183 ft 224 kts 288°
2026-05-06 14:55 46.92444 -1.73112 3078 ft 222 kts 291°
2026-05-06 14:55 46.93002 -1.75174 2998 ft 212 kts 303°
2026-05-06 14:55 46.94055 -1.76475 2997 ft 196 kts 347°
2026-05-06 14:56 46.95359 -1.76351 3003 ft 190 kts 28°
2026-05-06 14:56 46.96475 -1.75328 3008 ft 190 kts 31°
2026-05-06 14:56 46.97623 -1.74374 3004 ft 190 kts 29°
2026-05-06 14:56 46.98789 -1.73480 3003 ft 187 kts 27°
2026-05-06 14:57 46.99945 -1.72635 3035 ft 185 kts 27°
2026-05-06 14:57 47.01090 -1.71797 3003 ft 183 kts 27°
2026-05-06 14:57 47.02238 -1.70960 2904 ft 184 kts 26°
2026-05-06 14:57 47.03384 -1.70120 2554 ft 183 kts 27°
2026-05-06 14:58 47.04511 -1.69276 2287 ft 181 kts 27°
2026-05-06 14:58 47.05612 -1.68445 2027 ft 174 kts 27°
2026-05-06 14:58 47.06659 -1.67652 1786 ft 165 kts 27°
2026-05-06 14:58 47.07642 -1.66907 1582 ft 154 kts 28°
2026-05-06 14:59 47.08560 -1.66210 1393 ft 142 kts 27°
2026-05-06 14:59 47.09415 -1.65562 1186 ft 134 kts 28°
2026-05-06 14:59 47.10245 -1.64932 1008 ft 133 kts 27°
2026-05-06 14:59 47.11074 -1.64302 821 ft 134 kts 27°
2026-05-06 15:00 47.11903 -1.63672 642 ft 134 kts 27°
2026-05-06 15:00 47.12732 -1.63044 469 ft 135 kts 26°
2026-05-06 15:00 47.13563 -1.62403 276 ft 135 kts 26°
2026-05-06 15:00 47.14391 -1.61774 107 ft 129 kts 26°
2026-05-06 15:01 47.15075 -1.61256 88 ft 87 kts 27°
2026-05-06 15:01 47.15468 -1.60955 89 ft 43 kts 27°
2026-05-06 15:01 47.15665 -1.60794 86 ft 18 kts 46°
2026-05-06 15:01 47.15673 -1.60735 85 ft 2 kts 109°
2026-05-06 15:02 47.15664 -1.60700 88 ft 5 kts 117°
2026-05-06 15:02 47.15629 -1.60625 90 ft 7 kts 119°
2026-05-06 15:02 47.15641 -1.60560 92 ft 10 kts 41°
2026-05-06 15:02 47.15690 -1.60521 91 ft 6 kts 27°
2026-05-06 15:03 47.15719 -1.60486 90 ft 5 kts 55°
2026-05-06 15:03 47.15714 -1.60416 92 ft 9 kts 122°
2026-05-06 15:03 47.15674 -1.60361 90 ft 6 kts 133°
2026-05-06 15:03 47.15669 -1.60326 91 ft 1 kts 90°
2026-05-06 15:04 47.15681 -1.60311 90 ft 2 kts 37°
2026-05-06 15:04 47.15692 -1.60298 90 ft 4 kts 40°
2026-05-06 15:04 47.15702 -1.60285 90 ft 1 kts 43°
2026-05-06 15:04 47.15716 -1.60264 90 ft 0 kts 44°